Regional Weather Roundup
Issued by NWS

Home | Current Version | Previous Version | Text Only | Print | Product List | Glossary On
Versions: 1 2 3 4 5 6 7 8 9 10 11 12 13 14 15 16 17 18 19 20 21 22 23 24 25 26 27 28 29 30 31 32 33 34 35 36 37 38 39 40 41 42 43 44 45 46 47 48 49 50
000
ASUS43 KMKX 211811
RWRWI

WISCONSIN REGIONAL WEATHER ROUNDUP
NATIONAL WEATHER SERVICE MILWAUKEE/SULLIVAN WI
100 PM CDT TUE OCT 21 2014

NOTE: "FAIR" INDICATES FEW OR NO CLOUDS BELOW 12,000 FEET WITH NO
SIGNIFICANT WEATHER AND/OR OBSTRUCTIONS TO VISIBILITY.

WIZ001-002-006>008-014>016-023>028-211900-
NORTHWEST WISCONSIN

CITY           SKY/WX    TMP DP  RH WIND       PRES   REMARKS
SUPERIOR ARPT  CLOUDY    47  36  66 E9        30.24F
6HR MIN TEMP:  43; 6HR MAX TEMP:  47;

ASHLAND        CLOUDY    45  35  68 E5        30.27F
6HR MIN TEMP:  42; 6HR MAX TEMP:  45;

HAYWARD        MOSUNNY   47  35  63 SE6       30.23F
6HR MIN TEMP:  42; 6HR MAX TEMP:  47;

SIREN          SUNNY     52  35  53 E5        30.21F
6HR MIN TEMP:  42; 6HR MAX TEMP:  52;

CUMBERLAND     SUNNY     46  34  61 SE7       30.22S
RICE LAKE      SUNNY     49  36  60 SE10      30.23F
6HR MIN TEMP:  40; 6HR MAX TEMP:  49;

CHETEK         SUNNY     50  37  62 SE7       30.22F
6HR MIN TEMP:  40; 6HR MAX TEMP:  50;

LADYSMITH      MOSUNNY   50  37  60 E3        30.24F
6HR MIN TEMP:  42; 6HR MAX TEMP:  50;

EAU CLAIRE     SUNNY     51  36  56 VRB3      30.22F
6HR MIN TEMP:  35; 6HR MAX TEMP:  51;

MENOMONIE      MOSUNNY   51  37  58 SE7       30.23S
6HR MIN TEMP:  32; 6HR MAX TEMP:  52;

NEW RICHMOND   SUNNY     52  37  57 E5        30.21F
6HR MIN TEMP:  30; 6HR MAX TEMP:  52;

OSCEOLA        SUNNY     53  39  59 SE9       30.23F
6HR MIN TEMP:  30; 6HR MAX TEMP:  53;

$$

WIZ003>005-009-010-017-018-211900-
NORTH CENTRAL WISCONSIN

CITY           SKY/WX    TMP DP  RH WIND       PRES   REMARKS
MANITOWISH WTR CLOUDY    40  34  80 E3        30.25S
6HR MIN TEMP:  36; 6HR MAX TEMP:  40;

ARBOR VITAE    CLOUDY    42  35  76 E6        30.25S
6HR MIN TEMP:  39; 6HR MAX TEMP:  42;

WOODRUFF       CLOUDY    42  35  76 E6        30.25S
6HR MIN TEMP:  39; 6HR MAX TEMP:  42;

RHINELANDER    CLOUDY    43  34  70 N6        30.25F
6HR MIN TEMP:  37; 6HR MAX TEMP:  43;

EAGLE RIVER    CLOUDY    41  32  70 E3        30.25S
6HR MIN TEMP:  37; 6HR MAX TEMP:  41;

LAND O LAKES   CLOUDY    41  33  74 E3        30.25F
6HR MIN TEMP:  37; 6HR MAX TEMP:  41;

PHILLIPS       CLOUDY    43  35  73 E3        30.23F
6HR MIN TEMP:  38; 6HR MAX TEMP:  43;

TOMAHAWK       CLOUDY    43  33  69 CALM      30.25F
6HR MIN TEMP:  39; 6HR MAX TEMP:  43;

MEDFORD        CLOUDY    47  37  67 SE7       30.24S
6HR MIN TEMP:  39; 6HR MAX TEMP:  47;

MERRILL        MOSUNNY   47  35  63 E6        30.24F
6HR MIN TEMP:  40; 6HR MAX TEMP:  47;

$$

WIZ029-030-035-036-043>047-211900-
CENTRAL WISCONSIN

CITY           SKY/WX    TMP DP  RH WIND       PRES   REMARKS
WAUSAU         PTSUNNY   48  35  60 VRB3      30.23F
6HR MIN TEMP:  41; 6HR MAX TEMP:  48;

MOSINEE        NOT AVBL
MARSHFIELD     PTSUNNY   48  37  65 VRB6      30.24S
6HR MIN TEMP:  40; 6HR MAX TEMP:  50;

STEVENS POINT  MOSUNNY   45  34  64 SE6       30.25F
6HR MIN TEMP:  38; 6HR MAX TEMP:  46; 6HR PCP:  0.02;

WAUPACA        CLOUDY    50  36  60 N6        30.25F
6HR MIN TEMP:  41; 6HR MAX TEMP:  50;

WAUTOMA        CLOUDY    47  35  63 VRB6      30.25F
6HR MIN TEMP:  36; 6HR MAX TEMP:  47;

WISC RAPIDS    CLOUDY    47  35  63 VRB5      30.26F
6HR MIN TEMP:  39; 6HR MAX TEMP:  47;

CAMP DOUGLAS   PTSUNNY   48  37  66 E8        30.24F
$$

WIZ011>013-019>022-031-037>040-048>050-211900-
NORTHEAST WISCONSIN

CITY           SKY/WX    TMP DP  RH WIND       PRES   REMARKS
ANTIGO         SUNNY     46  36  68 CALM      30.24S
6HR MIN TEMP:  38; 6HR MAX TEMP:  46;

SHAWANO        SUNNY     51  35  54 E3        30.25S
6HR MIN TEMP:  44; 6HR MAX TEMP:  51;

OCONTO         MOSUNNY   49  33  54 CALM      30.23S
6HR MIN TEMP:  42; 6HR MAX TEMP:  50;

STURGEON BAY   PTSUNNY   48  34  57 N14       30.23F
6HR MIN TEMP:  45; 6HR MAX TEMP:  48;

GREEN BAY      SUNNY     49  35  58 NE12      30.24F
6HR MIN TEMP:  43; 6HR MAX TEMP:  49;

MANITOWOC      PTSUNNY   50  36  58 NE12      30.22F
6HR MIN TEMP:  44; 6HR MAX TEMP:  51;

APPLETON       PTSUNNY   46  34  61 N9        30.24S
CLINTONVILLE   MOSUNNY   50  34  53 NE5       30.24S
OSHKOSH        CLOUDY    47  36  65 NE9       30.24S
6HR MIN TEMP:  44; 6HR MAX TEMP:  47;

$$

WIZ032>034-041-042-053>061-211900-
SOUTHWEST WISCONSIN

CITY           SKY/WX    TMP DP  RH WIND       PRES   REMARKS
LA CROSSE      SUNNY     54  37  52 E7        30.22F
6HR MIN TEMP:  36; 6HR MAX TEMP:  55;

SPARTA         MOSUNNY   51  35  55 SE7       30.24F
6HR MIN TEMP:  28; 6HR MAX TEMP:  51;

VIROQUA        SUNNY     53  36  53 E5        30.22S
6HR MIN TEMP:  37; 6HR MAX TEMP:  53;

BOSCOBEL       SUNNY     55  37  50 NE7       30.23F
6HR MIN TEMP:  32; 6HR MAX TEMP:  55;

PRAIRIE DU CHI SUNNY     54  36  50 E9        30.21F
6HR MIN TEMP:  36; 6HR MAX TEMP:  54;

PLATTEVILLE    MOSUNNY   53  37  55 NE7       30.22F
6HR MIN TEMP:  37; 6HR MAX TEMP:  53;

$$

WIZ056-057-062-063-064-067-068-211900-
SOUTH CENTRAL WISCONSIN

CITY           SKY/WX    TMP DP  RH WIND       PRES   REMARKS
REEDSBURG      CLOUDY    47  36  67 E3        30.24F
6HR MIN TEMP:  39; 6HR MAX TEMP:  47;

BARABOO/DELLS  CLOUDY    46  35  66 NE6       30.24F
6HR MIN TEMP:  38; 6HR MAX TEMP:  46;

LONE ROCK      MOSUNNY   54  37  52 SE7       30.23F
6HR MIN TEMP:  36; 6HR MAX TEMP:  55;

MINERAL POINT  MOSUNNY   54  36  50 NE6       30.22F
MADISON        CLOUDY    48  37  65 N7        30.23F
6HR MIN TEMP:  39; 6HR MAX TEMP:  48;

MIDDLETON      CLOUDY    48  36  62 NE6G12    30.24S
6HR MIN TEMP:  41; 6HR MAX TEMP:  49;

WATERTOWN      CLOUDY    46  39  75 N6        30.22F
6HR MIN TEMP:  42; 6HR MAX TEMP:  46;

MONROE         CLOUDY    46  37  71 NE10      30.21S
JANESVILLE     PTSUNNY   52  37  58 N13G18    30.21S
$$

WIZ051-052-058>065-066-070>072-211900-
SOUTHEAST WISCONSIN

CITY           SKY/WX    TMP DP  RH WIND       PRES   REMARKS
MILWAUKEE      CLOUDY    48  39  71 N10       30.20F
6HR MIN TEMP:  45; 6HR MAX TEMP:  48;

WAUKESHA       CLOUDY    45  37  76 N10       30.22S
MILWAUKEE/TIMM CLOUDY    48  37  66 N16       30.22S
RACINE         CLOUDY    48  40  73 N17       30.21S
6HR MIN TEMP:  46; 6HR MAX TEMP:  48;

BURLINGTON     CLOUDY    47  38  70 NE10      30.20F
6HR MIN TEMP:  39; 6HR MAX TEMP:  49;

KENOSHA        CLOUDY    49  39  68 N9G21     30.20S
6HR MIN TEMP:  43; 6HR MAX TEMP:  52;

FOND DU LAC    CLOUDY    46  37  71 NE14      30.24S
6HR MIN TEMP:  45; 6HR MAX TEMP:  46;

SHEBOYGAN      PTSUNNY   50  36  58 NE14      30.22S
6HR MIN TEMP:  44; 6HR MAX TEMP:  50;

WEST BEND      CLOUDY    46  34  61 N7        30.22S
JUNEAU         CLOUDY    45  38  75 N9        30.24S
6HR MIN TEMP:  42; 6HR MAX TEMP:  45;

$$

LSZ147-162-211900-
LAKE SUPERIOR

STATION/POSITION TIME  TEMP    WIND        PRES    WAVE
                       AIR SEA DIR/SP/G            HT/PER
                 (UTC) (F)     (DEG/KT/KT) (MB)    (FT/S)
W MID LAKE BUOY  1750   42 46   90/  8/ 10 1026.2F   3/ 6
DEVILS ISLAND    1800   42     100/ 12/ 15 1026.0F
PORT WING        1740   45      90/  4/ 10 1025.1F
SAXON HARBOR     1700   45      80/  1/  6 1025.4R
$$

LMZ867-665-643>646-211900-
LAKE MICHIGAN

STATION/POSITION TIME  TEMP    WIND        PRES    WAVE



USA.gov is the U.S. government's official web portal to all federal, state and local government web resources and services.